User: anonymous   Login
Location: Unspecified
(0.0000°N, 0.0000°E)
Time: 22:11:52
(UTC+00:00)
Language:

Altair - Orbit

View from above orbital plane
View from above orbital plane
View from above satellite
View from above satellite

Ground track
Ground track

The orbit data is extracted from the following two-line orbital elements,

1 00050U 60009B   16240.46799290 -.00000037  00000-0  46552-3 0  9995
2 00050  47.2306 115.2757 0113328 143.0541 217.8120 12.20096859500966
Epoch (UTC): 27 August 2016 11:13:54
Eccentricity: 0.0113328
inclination: 47.2306°
perigee height: 1502 km
apogee height: 1682 km
right ascension of ascending node: 115.2757°
argument of perigee: 143.0541°
revolutions per day: 12.20096859
mean anomaly at epoch: 217.8120°
orbit number at epoch: 50096

The dashed part of the orbit path shows where the satellite is in the earth's shadow,  

DLR